Regional Weather Roundup
Issued by NWS Glasgow, MT

Home | Current Version | Previous Version | Text Only | Print | Product List | Glossary On
Versions: 1 2 3 4 5 6 7 8 9 10 11 12 13 14 15 16 17 18 19 20 21 22 23 24 25 26 27 28 29 30 31 32 33 34 35 36 37 38 39 40 41 42 43 44 45 46 47 48 49 50
000
ASUS45 KGGW 041515
RWRGGW
HOURLY REGIONAL WEATHER ROUNDUP FOR NORTHEAST MONTANA
NATIONAL WEATHER SERVICE GLASGOW MONTANA
900 AM MDT TUE AUG 04 2015

NOTE: "FAIR" INDICATES FEW OR NO CLOUDS BELOW 12,000 FEET WITH NO
SIGNIFICANT WEATHER AND/OR OBSTRUCTIONS TO VISISBILITY.

NORTHEAST MONTANA


CITY           SKY/WX    TMP DP  RH WIND       PRES   REMARKS
GLASGOW        MOSUNNY   72  50  45 E17       29.89R
PLENTYWOOD       N/A     73  49  42 SE5G15      N/A
WOLF POINT     MOSUNNY   71  51  49 E7        29.92S
JORDAN           N/A     77  55  46 S10       29.88S
WINNETT          N/A     72  53  51 S2          N/A
SIDNEY         SUNNY    N/A N/A N/A E9        29.94F
GLENDIVE         N/A    N/A N/A N/A MISG        N/A
MALTA            N/A     73  55  53 E3G12       N/A
SCOBEY           N/A     72  49  44 SE13G23   29.94S

FORT PECK REPORTS


CITY           SKY/WX    TMP DP  RH WIND       PRES   REMARKS
FORT PECK        N/A     69  53  56 E14         N/A
THE PINES        N/A     74  53  48 SE3         N/A

SOUTHEAST MONTANA


CITY           SKY/WX    TMP DP  RH WIND       PRES   REMARKS
BILLINGS       CLOUDY    74  50  42 SW13      29.94S
MILES CITY     MOSUNNY   76  59  55 SE9       29.90S
BAKER          SUNNY     69  55  60 SE14      29.97S
LIVINGSTON     PTSUNNY   70  50  49 W13       30.02S

CENTRAL MONTANA


CITY           SKY/WX    TMP DP  RH WIND       PRES   REMARKS
HAVRE          PTSUNNY   68  54  60 NW3       29.84R
LEWISTOWN      PTSUNNY   74  55  51 NE5       29.96R
GREAT FALLS    CLOUDY    76  47  35 SE7       29.92S
CUT BANK       CLOUDY    75  44  33 N7        29.92R
HELENA         CLOUDY    75  48  38 N6        29.97R
BUTTE          PTSUNNY   67  47  48 CALM      30.11R
BOZEMAN        CLOUDY    70  54  56 SE3       30.03S

WESTERN MONTANA


CITY           SKY/WX    TMP DP  RH WIND       PRES   REMARKS
MISSOULA       CLOUDY    69  46  43 S3        29.99R
KALISPELL      NOT AVBL

NORTH DAKOTA


CITY           SKY/WX    TMP DP  RH WIND       PRES   REMARKS
WILLISTON      SUNNY     75  48  38 SE10      29.97S
DICKINSON      SUNNY     70  55  59 SE10      29.98S
MINOT          SUNNY     70  49  47 E6        30.01S
BISMARCK       SUNNY     69  55  60 E7        30.00S

SOUTHERN SASKATCHEWAN


CITY           SKY/WX    TMP DP  RH WIND       PRES   REMARKS
REGINA         PTSUNNY   68  52  56 SE16G22   29.97F
MOOSE JAW      PTSUNNY   64  55  72 E10       29.94F
ESTEVAN        PTSUNNY   70  52  52 SE12      30.01S
SWIFT CURRENT  SUNNY     72  54  53 SE17G25   29.85F




USA.gov is the U.S. government's official web portal to all federal, state and local government web resources and services.